Hourly Data Report for July 12, 2021

GORE BAY CLIMATE
ONTARIO
Current Station Operator: ECCC - MSC

45°53'00.000" N
82°34'00.000" W
188.60 m
6092920
71956
TZE

Download Data

Hourly Data (July 2021)
Hourly Data Report for July 12, 2021
TIME
LST
Temp Definition
°C
Dew Point Definition
°C
Rel Hum Definition
%
Precip. Amount Definition
mm

Wind Dir Definition
10's deg

Wind Spd Definition
km/h
Visibility Definition
km
Stn Press Definition
kPa
Hmdx Definition


Wind Chill Definition


Weather Definition


00:00 15.3 12.0 80 0.0 9 4   99.68     LegendNANA
01:00 14.8 11.7 82 0.0 11 5   99.70     LegendNANA
02:00 14.4 10.9 80 0.0 6 6   99.72     LegendNANA
03:00 13.6 10.9 84 0.0   0   99.75     LegendNANA
04:00 13.4 10.7 84 0.0 4 2   99.75     LegendNANA
05:00 13.5 11.5 88 0.0 3 5   99.76     LegendNANA
06:00 17.9 16.0 89 0.0 4 9   99.78     LegendNANA
07:00 19.1 15.9 82 0.0 4 12   99.80     LegendNANA
08:00 20.8 16.3 76 0.0 4 8   99.85 26   LegendNANA
09:00 22.3 16.5 70 0.0 36 8   99.85 27   LegendNANA
10:00 22.6 17.0 71 0.0 1 11   99.85 28   LegendNANA
11:00 23.9 17.0 65 0.0 2 13   99.86 29   LegendNANA
12:00 26.1 15.9 53 0.0 28 6   99.87 31   LegendNANA
13:00 26.3 16.0 53 0.0 23 11   99.84 31   LegendNANA
14:00 26.2 14.1 47 0.0 19 16   99.81 30   LegendNANA
15:00 26.1 12.6 43 0.0 18 17   99.81 29   LegendNANA
16:00 25.4 12.0 43 0.0 19 18   99.77 28   LegendNANA
17:00 24.9 12.6 47 0.0 20 12   99.72 27   LegendNANA
18:00 24.8 13.2 48 0.0 19 8   99.70 28   LegendNANA
19:00 24.8 13.1 48 0.0 18 7   99.70 28   LegendNANA
20:00 23.5 13.6 54 0.0 13 4   99.67 27   LegendNANA
21:00 21.7 14.2 63 0.0 7 6   99.70 25   LegendNANA
22:00 19.4 14.1 71 0.0 16 4   99.69     LegendNANA
23:00 20.0 14.0 68 0.0 9 1   99.68     LegendNANA

Notes on Data Quality.

Legend

  • E = Estimated
  • M = Missing
  • NA = Not Available*
  • [empty] = Indicates an unobserved value
Date modified: